[[{"header":{"parameterUnit":"m.s-1","parameterCategory":1,"la1":30.2991,"la2":30.254,"lo1":-89.0895,"lo2":-89.0444,"dy":0.0017,"dx":0.0017,"nx":28,"ny":28,"refTime":"2023-11-04T03:00:00:Z","depth":0,"parameterNumber":2,"parameterNumberName":"U-component_of_WINDS"},"data":[0,0,0,0,0,0,0,0,0,0,0,0,0,0,0,0,0,0,0,0,0,0,0,0,0,0,0,0,0,0,0,0,0,0,0,0,0,0,0,0,0,0,0,0,0,0,0,0,0,0,0,0,0,0,0,0,0,0,-2.1813,-2.1812,0,-2.1736,-2.1735,-2.1734,-2.1622,-2.162,-2.1618,-2.1617,-2.1539,-2.1539,-2.1538,0,0,0,0,0,0,0,0,0,0,0,0,0,-2.1865,-2.1864,-2.1813,-2.1812,-2.1811,-2.1736,-2.1735,-2.1734,-2.1623,-2.162,-2.1618,-2.1616,-2.1539,-2.1539,-2.1538,0,0,0,0,0,0,0,0,0,0,0,0,0,-2.1821,-2.1864,-2.1813,-2.1746,-2.1739,-2.1737,-2.1735,-2.1734,-2.1623,-2.162,-2.1617,-2.1615,-2.1539,-2.1539,-2.1538,-2.1595,0,0,-2.1537,-2.1537,0,0,0,0,0,0,0,0,-2.1823,-2.1819,-2.1757,-2.1751,-2.1743,-2.1686,-2.1725,-2.1687,-2.1624,-2.1667,-2.1617,-2.1613,-2.159,-2.1585,-2.1577,-2.1591,-2.1588,-2.1537,-2.1537,-2.1537,-2.1537,0,0,0,0,0,0,0,-2.1826,-2.1821,-2.1782,-2.1756,-2.1748,-2.1721,-2.1711,-2.1717,-2.1646,-2.1663,-2.1655,-2.1647,-2.1586,-2.1578,-2.1575,-2.1587,-2.1537,-2.1537,-2.1537,-2.1536,-2.1645,-2.1648,0,0,0,0,0,0,-2.1839,-2.1825,-2.1785,-2.178,-2.1777,-2.1722,-2.1712,-2.1707,-2.1646,-2.1634,-2.165,-2.1643,-2.158,-2.1575,-2.1572,-2.1635,-2.1537,-2.1536,-2.1536,-2.1642,-2.1646,-2.165,0,0,0,0,0,0,-2.1841,-2.1837,-2.1788,-2.18,-2.1792,-2.1724,-2.172,-2.1707,-2.1699,-2.1636,-2.1623,-2.1655,-2.1578,-2.1572,-2.159,-2.1631,-2.1536,-2.1536,-2.1639,-2.1644,-2.1648,-2.1762,0,0,0,0,0,0,-2.1843,-2.1838,-2.1858,-2.1801,-2.1792,-2.1807,-2.1723,-2.1708,-2.1699,-2.1688,-2.1637,-2.1626,-2.1575,-2.1592,-2.159,-2.1629,-2.1536,-2.1635,-2.1641,-2.1646,-2.1754,-2.177,-2.1783,0,0,0,0,0,-2.1845,-2.1892,-2.1859,-2.1855,-2.1815,-2.181,-2.1804,-2.1745,-2.1703,-2.1723,-2.1682,-2.1627,-2.1627,-2.1594,-2.1592,-2.1631,-2.1632,-2.1639,-2.1646,-2.1748,-2.1767,-2.1783,0,0,0,0,0,0,-2.1954,-2.1884,-2.1846,-2.1877,-2.185,-2.1791,-2.1814,-2.1767,-2.1752,-2.1742,-2.1669,-2.1659,-2.1687,-2.166,-2.1625,-2.1684,-2.1621,-2.1628,-2.17,-2.1717,-2.1731,-2.1737,-2.1535,0,0,0,0,0,-2.1983,-2.1984,-2.1922,-2.1955,-2.1944,-2.1882,-2.1877,-2.1834,-2.1804,-2.1792,-2.1752,-2.1726,-2.172,-2.1717,-2.1707,-2.175,-2.1738,-2.1776,-2.1791,-2.1803,-2.181,-2.1833,-2.1849,-2.1673,-2.1673,-2.1672,0,0,-2.204,-2.2001,-2.2006,-2.1976,-2.195,-2.1954,-2.1873,-2.188,-2.1882,-2.1793,-2.1808,-2.1779,-2.1744,-2.1776,-2.1787,-2.1754,-2.1856,-2.1812,-2.1822,-2.1822,-2.1842,-2.1858,-2.1873,-2.1677,-2.1676,-2.1676,0,0,-2.2146,-2.2117,-2.2142,-2.2119,-2.2081,-2.204,-2.2047,-2.1995,-2.1973,-2.1987,-2.192,-2.1923,-2.1913,-2.1892,-2.188,-2.1983,-2.1932,-2.1982,-2.2058,-2.2081,-2.2095,-2.2107,-2.2145,-2.2159,-2.1989,-2.1989,-2.1989,0,-2.2222,-2.2224,-2.2161,-2.2173,-2.2162,-2.2083,-2.2109,-2.2089,-2.2051,-2.2046,-2.201,-2.1998,-2.1969,-2.1995,-2.2021,-2.2013,-2.202,-2.1987,-2.2098,-2.2109,-2.2119,-2.2155,-2.2169,-2.1995,-2.1995,-2.1994,-2.1993,0,-2.232,-2.2324,-2.2349,-2.2315,-2.2307,-2.2326,-2.2267,-2.2267,-2.2226,-2.2189,-2.2206,-2.2169,-2.2152,-2.2155,-2.2114,-2.2177,-2.2158,-2.2111,-2.2047,-2.2144,-2.2176,-2.2189,-2.2004,-2.2002,-2.2,-2.1999,0,0,-2.2491,-2.2424,-2.2434,-2.2419,-2.2374,-2.2375,-2.2392,-2.2375,-2.2378,-2.2355,-2.2368,-2.2364,-2.2321,-2.2308,-2.2264,-2.2285,-2.2371,-2.2235,-2.2234,-2.2263,-2.244,-2.2475,-2.2492,-2.2337,-2.234,-2.2342,-2.2443,0,-2.2589,-2.2612,-2.2557,-2.2595,-2.2598,-2.2524,-2.2539,-2.2514,-2.2481,-2.248,-2.2444,-2.2442,-2.2385,-2.2377,-2.2394,-2.2357,-2.2405,-2.2349,-2.235,-2.2351,-2.2361,-2.2508,-2.2545,-2.2642,-2.2455,-2.2457,-2.2458,0,-2.2705,-2.2689,-2.2728,-2.2683,-2.2682,-2.2696,-2.2678,-2.2678,-2.2648,-2.2623,-2.2611,-2.256,-2.2575,-2.2514,-2.2535,-2.2497,-2.2495,-2.2477,-2.248,-2.2477,-2.241,-2.2511,-2.2672,-2.2687,-2.2477,-2.2476,-2.2474,0,-2.2827,-2.2816,-2.2837,-2.2827,-2.2774,-2.2786,-2.2765,-2.2733,-2.2728,-2.2713,-2.2709,-2.2696,-2.2689,-2.2681,-2.263,-2.259,-2.2657,-2.2591,-2.2638,-2.2639,-2.2654,-2.2654,-2.2818,-2.2653,-2.2653,-2.2652,-2.2652,0,-2.2941,-2.2968,-2.2892,-2.2905,-2.2934,-2.2872,-2.2902,-2.2874,-2.2846,-2.2854,-2.279,-2.2799,-2.273,-2.2732,-2.2692,-2.2716,-2.2713,-2.2695,-2.2684,-2.27,-2.2703,-2.2697,-2.2689,-2.2656,-2.2655,-2.2655,-2.2654,0,-2.3082,-2.3032,-2.3051,-2.3001,-2.2989,-2.3013,-2.297,-2.2982,-2.2946,-2.2957,-2.2956,-2.29,-2.29,-2.2848,-2.2836,-2.281,-2.2851,-2.2827,-2.2861,-2.2853,-2.2903,-2.29,-2.3069,-2.3089,-2.2912,-2.2913,-2.2915,0,-2.3158,-2.3177,-2.313,-2.313,-2.3113,-2.3115,-2.3109,-2.305,-2.3048,-2.3018,-2.3034,-2.3028,-2.302,-2.3023,-2.2982,-2.2974,-2.295,-2.301,-2.2948,-2.2965,-2.2952,-2.2952,-2.2954,-2.3023,-2.3025,-2.3027,-2.3029,0,-2.3299,-2.3274,-2.3269,-2.3256,-2.3252,-2.3239,-2.3223,-2.3227,-2.3162,-2.3163,-2.3162,-2.3157,-2.3146,-2.3142,-2.3127,-2.3106,-2.3058,-2.3049,-2.3059,-2.3076,-2.3095,-2.3087,-2.2897,-2.3045,-2.3043,-2.3042,-2.3041,-2.304,-2.3409,-2.3424,-2.3394,-2.3391,-2.3373,-2.3359,-2.3368,-2.3335,-2.3333,-2.3319,-2.3285,-2.329,-2.3264,-2.3238,-2.3222,-2.3227,-2.3196,-2.3211,-2.3215,-2.322,-2.323,-2.3095,-2.3224,-2.3223,-2.3222,-2.3222,-2.3222,0,-2.3547,-2.3525,-2.3524,-2.3503,-2.3502,-2.3457,-2.3437,-2.3439,-2.3444,-2.3424,-2.3418,-2.3419,-2.3415,-2.3376,-2.3368,-2.3379,-2.3357,-2.3379,-2.3378,-2.3374,-2.3256,-2.3249,-2.3398,-2.3398,-2.3398,-2.3398,-2.3398,-2.3398,-2.3619,-2.3642,-2.3614,-2.3628,-2.3606,-2.361,-2.3603,-2.3591,-2.3575,-2.3578,-2.3575,-2.355,-2.3522,-2.3513,-2.3508,-2.3497,-2.3498,-2.3528,-2.3509,-2.3399,-2.3382,-2.3366,-2.3358,-2.3528,-2.3528,-2.3626,-2.3627,-2.3628]},{"header":{"parameterUnit":"m.s-1","parameterCategory":1,"la1":30.2991,"la2":30.254,"lo1":-89.0895,"lo2":-89.0444,"dy":0.0017,"dx":0.0017,"nx":28,"ny":28,"refTime":"2023-11-04T03:00:00:Z","depth":0,"parameterNumber":3,"parameterNumberName":"V-component_of_WINDS"},"data":[0,0,0,0,0,0,0,0,0,0,0,0,0,0,0,0,0,0,0,0,0,0,0,0,0,0,0,0,0,0,0,0,0,0,0,0,0,0,0,0,0,0,0,0,0,0,0,0,0,0,0,0,0,0,0,0,0,0,0.2054,0.2053,0,0.1988,0.1987,0.1987,0.2002,0.2004,0.2005,0.2006,0.1933,0.193,0.1927,0,0,0,0,0,0,0,0,0,0,0,0,0,0.219,0.2187,0.2054,0.2053,0.2052,0.1988,0.1987,0.1986,0.2002,0.2004,0.2005,0.2007,0.1934,0.193,0.1926,0,0,0,0,0,0,0,0,0,0,0,0,0,0.2128,0.2186,0.2054,0.2053,0.2052,0.1988,0.1987,0.1986,0.2002,0.2004,0.2006,0.2007,0.1935,0.1931,0.1926,0.1858,0,0,0.1912,0.191,0,0,0,0,0,0,0,0,0.2131,0.2123,0.2054,0.2052,0.2052,0.2005,0.2008,0.1943,0.2001,0.202,0.2006,0.2008,0.1955,0.1949,0.1932,0.1855,0.1852,0.1911,0.1908,0.1906,0.1905,0,0,0,0,0,0,0,0.2135,0.2126,0.2028,0.2052,0.2051,0.2054,0.2047,0.1996,0.1978,0.2019,0.202,0.2012,0.1955,0.1937,0.1931,0.1851,0.1911,0.1907,0.1904,0.1902,0.1715,0.1713,0,0,0,0,0,0,0.2141,0.2129,0.203,0.2026,0.2097,0.205,0.2042,0.2018,0.1978,0.1974,0.2011,0.2013,0.1944,0.1936,0.1928,0.1845,0.1906,0.1902,0.1899,0.1717,0.1714,0.1712,0,0,0,0,0,0,0.2144,0.2132,0.2032,0.2078,0.2065,0.2046,0.2018,0.2016,0.1998,0.1972,0.1968,0.1996,0.1945,0.1935,0.1876,0.1843,0.19,0.1895,0.172,0.1716,0.1713,0.168,0,0,0,0,0,0,0.2148,0.2133,0.2108,0.2077,0.2063,0.1982,0.2016,0.2013,0.199,0.1993,0.1957,0.1953,0.1946,0.1883,0.1871,0.1838,0.1892,0.1722,0.1718,0.1714,0.1684,0.1676,0.167,0,0,0,0,0,0.2153,0.21,0.2106,0.2094,0.2031,0.198,0.1972,0.1967,0.1988,0.1961,0.1945,0.1954,0.185,0.1877,0.1864,0.1828,0.1724,0.1719,0.1715,0.1687,0.1678,0.167,0,0,0,0,0,0,0.2125,0.2096,0.2103,0.2039,0.2012,0.1983,0.195,0.1957,0.1922,0.1926,0.1919,0.1911,0.1851,0.1834,0.1865,0.1761,0.179,0.1782,0.1773,0.1764,0.1757,0.1761,0.1888,0,0,0,0,0,0.2112,0.2075,0.2051,0.1996,0.1983,0.1969,0.1947,0.1945,0.1917,0.1905,0.1885,0.1855,0.1816,0.179,0.1752,0.1683,0.1675,0.1653,0.1645,0.164,0.1632,0.1594,0.1583,0.1696,0.1696,0.1696,0,0,0.2083,0.2063,0.2039,0.199,0.197,0.193,0.1959,0.1916,0.1886,0.1898,0.1841,0.1826,0.1792,0.1728,0.1699,0.1712,0.16,0.1633,0.1629,0.1624,0.1588,0.1577,0.1567,0.1693,0.1694,0.1694,0,0,0.201,0.1992,0.1944,0.1924,0.1893,0.1885,0.1874,0.1844,0.1835,0.1779,0.1787,0.1751,0.1684,0.166,0.1639,0.156,0.1566,0.1548,0.1509,0.1472,0.1463,0.1455,0.1425,0.1414,0.1542,0.1541,0.1541,0,0.1977,0.1919,0.1919,0.1875,0.1853,0.1865,0.1817,0.1796,0.1754,0.1738,0.1755,0.1671,0.165,0.158,0.1561,0.1545,0.153,0.155,0.1465,0.1456,0.1449,0.142,0.1409,0.1539,0.154,0.154,0.154,0,0.188,0.184,0.1805,0.1766,0.1741,0.1695,0.1686,0.1661,0.1662,0.1652,0.1594,0.157,0.1528,0.1512,0.1512,0.1442,0.1451,0.1467,0.1495,0.1436,0.1409,0.1398,0.1536,0.1537,0.1538,0.1538,0,0,0.1783,0.1748,0.1735,0.1717,0.1686,0.1654,0.1609,0.157,0.1547,0.1519,0.1479,0.1424,0.1438,0.1414,0.1413,0.1381,0.1318,0.14,0.1399,0.1383,0.1238,0.1225,0.1212,0.1324,0.1322,0.1321,0.124,0,0.1706,0.1627,0.1627,0.1554,0.1516,0.1529,0.149,0.1466,0.1456,0.1421,0.141,0.137,0.1393,0.1378,0.1348,0.1332,0.1288,0.1339,0.1285,0.1283,0.129,0.1198,0.1184,0.1109,0.123,0.1228,0.1227,0,0.1604,0.1574,0.1498,0.1474,0.1458,0.1422,0.1387,0.1355,0.1328,0.1323,0.1298,0.1302,0.1254,0.1287,0.1221,0.1256,0.1234,0.1224,0.1221,0.1213,0.1249,0.1185,0.1085,0.1072,0.121,0.1212,0.1213,0,0.1538,0.148,0.1427,0.1412,0.1382,0.1357,0.1343,0.1319,0.1295,0.1265,0.1249,0.1213,0.1192,0.1163,0.1157,0.1182,0.109,0.1123,0.1082,0.1082,0.1059,0.106,0.0951,0.1051,0.1051,0.1051,0.1051,0,0.145,0.1402,0.1397,0.1364,0.1311,0.1312,0.1259,0.1247,0.1225,0.1189,0.1199,0.1165,0.116,0.1124,0.1119,0.1064,0.1056,0.1049,0.1047,0.1046,0.1046,0.1029,0.1033,0.1048,0.1049,0.105,0.105,0,0.1365,0.1361,0.1303,0.1281,0.1275,0.1237,0.1217,0.1185,0.1178,0.1132,0.1121,0.1108,0.1067,0.1059,0.101,0.1007,0.0941,0.0946,0.095,0.0949,0.0909,0.0912,0.0782,0.0765,0.0878,0.0877,0.0877,0,0.1308,0.1272,0.1247,0.1224,0.121,0.1174,0.1151,0.1151,0.1127,0.1095,0.1066,0.1027,0.0994,0.0928,0.0913,0.0875,0.0878,0.0836,0.0872,0.0872,0.0874,0.0875,0.0871,0.0827,0.0826,0.0825,0.0824,0,0.1205,0.1205,0.1173,0.114,0.1113,0.1087,0.1062,0.1043,0.1039,0.1011,0.0971,0.0946,0.0898,0.0857,0.082,0.0805,0.0812,0.0814,0.0802,0.0798,0.0801,0.0797,0.0928,0.0815,0.0816,0.0817,0.0817,0.0818,0.113,0.1099,0.1077,0.1041,0.1023,0.1,0.0969,0.0959,0.0925,0.0887,0.0889,0.0844,0.0819,0.0771,0.0753,0.0717,0.073,0.0713,0.0709,0.0704,0.0699,0.081,0.071,0.0711,0.0711,0.0711,0.0711,0,0.1026,0.1013,0.098,0.0946,0.0918,0.0933,0.0906,0.0881,0.0841,0.0819,0.0788,0.0741,0.0703,0.0687,0.0649,0.0623,0.0626,0.0613,0.0613,0.0609,0.069,0.0703,0.0611,0.0611,0.0611,0.0611,0.0611,0.0611,0.0968,0.0915,0.0913,0.0852,0.084,0.0797,0.078,0.0759,0.0741,0.0689,0.0658,0.0649,0.0628,0.059,0.0555,0.0551,0.0536,0.052,0.0518,0.0593,0.0603,0.0613,0.0625,0.0518,0.0518,0.0439,0.0438,0.0438]}]]